Zurück zum Katalog

STARLINK-31402

AktivKommunikationVLEO
NORAD 59320·PAYLOAD·🇺🇸 United States

Gestartet Mar 25, 2024 von Cape Canaveral Space Force Station

Loading…

Nächste Überflüge (nächste 24 Stunden)

TLE

AktuellSource: CelesTrak SupGP

Epoche: Sep 15, 2026, 02:59 UTC

1 59320C 24057A   26258.12479167  .00167980  00000+0  39567-2 0  2587
2 59320  42.9957 142.7600 0015415 219.9595  55.1417 15.40873099    13

Verfolge STARLINK-31402 in Echtzeit mit AllMySat

Download on the App Store